Location: Lake Zurich
(42.1970°N, 88.0930°W)
Time: 19:18:52
(UTC-05:00)

Daily predictions for brighter satellites

Satellite Brightness Start Highest point End
(mag) Time Altitude Azimuth Time Altitude Azimuth Time Altitude Azimuth
Lacrosse 5 4.1 20:46:41 10° W 20:51:04 29° NNW 20:55:28 10° NNE
Cosmos 2237 Rocket 3.5 20:45:43 10° SW 20:51:07 47° WNW 20:56:34 10° NNE
ALOS 2.9 20:48:28 10° S 20:53:04 59° W 20:57:42 10° NNW
Aureole 2 Rocket 3.0 20:49:47 10° S 20:53:34 44° ESE 20:57:02 10° NNE
deb Chang Zheng 4 3.7 20:49:37 10° NNE 20:53:59 59° ESE 20:58:18 10° S
Cosmos 2278 Rocket 3.6 20:53:12 10° NW 20:58:21 36° WSW 21:03:28 10° S
Cosmos 1606 Rocket 4.4 20:58:42 10° NNW 21:03:03 53° W 21:07:19 10° S
Cosmos 2034 Rocket 4.2 20:56:55 10° N 21:03:13 59° E 21:09:27 10° SSE
Cosmos 1331 Rocket 4.3 20:58:25 10° NNW 21:03:37 70° WSW 21:08:44 10° S
ATLAS CENTAUR R/B 3.6 21:03:13 10° WSW 21:07:52 38° NW 21:12:36 10° NNE
Atlas Centaur 2 3.9 21:01:50 10° SW 21:08:00 27° SSE 21:14:46 10° ESE
H-2A R/B 2.1 21:06:37 10° SSE 21:10:51 82° WSW 21:15:13 10° NNW
Meteor 1-15 Rocket 4.2 21:05:18 10° N 21:10:54 81° E 21:16:33 10° SSE
Cosmos 2369 Rocket 3.7 21:07:18 10° N 21:11:48 23° NE 21:16:15 10° ESE
SeaSat 1 2.7 21:07:21 10° SE 21:12:08 57° ENE 21:17:00 10° NNW
DEBRIS 2.7 21:07:23 10° WNW 21:13:32 77° SW 21:15:34 15° SE
Cosmos 1302 Rocket 4.0 21:08:30 10° NNW 21:13:46 85° ENE 21:19:01 10° SSE
ARGOS 4.4 21:10:34 11° ESE 21:14:56 27° ENE 21:19:26 10° N
Cosmos 1666 2.7 21:12:05 10° N 21:16:00 86° E 21:19:54 10° S
CZ-4B R/B 4.2 21:13:17 10° NNE 21:17:54 34° E 21:22:35 10° SSE
PSLV R/B 3.4 21:16:10 13° SSE 21:18:46 52° ENE 21:21:49 10° N
SL-16 R/B 2.8 21:13:16 10° SW 21:18:51 62° WNW 21:24:28 10° NNE
Cosmos 1626 Rocket 3.6 21:15:24 10° S 21:19:46 60° E 21:24:08 10° NNE
Cosmos 1939 Rocket 3.0 21:18:06 10° SSE 21:22:16 85° WSW 21:26:27 10° NNW
Milstar 3 Cent rocket 4.1 21:20:04 10° WSW 21:24:13 16° SSW 21:27:27 10° S
COSMOS 2455 3.2 21:21:00 10° S 21:26:35 43° ESE 21:32:14 10° NE
Cosmos 2228 3.4 21:25:41 10° NNW 21:30:04 65° W 21:34:25 10° S
APEX 4.1 21:28:30 10° NW 21:32:31 58° WSW 21:37:25 11° S
MetOp-B 4.2 21:28:00 13° SSE 21:32:41 64° ENE 21:37:59 10° N
Lacrosse 5 rocket 3.6 21:29:18 10° W 21:32:41 28° NNW 21:36:15 10° NNE
ATLAS 3B R/B 3.6 21:30:18 10° S 21:36:50 31° ESE 21:43:18 10° NE
ERS-1 Rocket 4.4 21:39:10 10° SSW 21:43:44 35° W 21:48:21 10° NNW
Cosmos 1515 4.0 21:43:53 19° SSE 21:46:21 49° E 21:50:06 10° NNE
Envisat 3.4 21:42:41 10° S 21:47:42 63° W 21:52:46 10° NNW
Cosmos 1603 3.7 21:42:08 10° SSW 21:47:45 89° NW 21:53:23 10° NNE
Abrixas rocket 3.6 21:47:03 10° W 21:50:03 29° SW 21:51:25 21° S
USA 234 3.3 21:45:49 18° SE 21:50:59 85° NE 21:57:36 10° NW
Cosmos 1346 Rocket 3.7 21:56:00 27° ESE 21:57:00 30° E 22:00:28 10° NNE
Lacrosse 4 Rocket 2.5 21:59:11 23° ESE 21:59:11 23° ESE 22:02:18 10° NE
UNK 4.4 21:58:30 10° NNE 22:03:54 76° WNW 22:09:33 10° SSW
YAOGAN 6 2.7 22:02:20 26° S 22:04:19 81° W 22:08:04 10° NNW
USA 81 4.0 21:59:33 10° N 22:04:51 70° E 22:08:02 24° SSE
ISS -3.4 22:04:28 10° SW 22:07:41 60° SE 22:10:55 10° ENE
BREEZE-M DEB (TANK) 2.2 22:04:37 10° WSW 22:08:07 68° NNW 22:09:51 14° NE
PSLV R/B 3.4 22:04:45 10° WSW 22:08:15 56° SSE 22:09:23 36° ESE
Cosmos 1758 Rocket 4.1 22:10:06 31° SE 22:11:30 41° E 22:15:36 10° NNE
CZ-4 R/B 3.9 22:06:46 10° NNE 22:11:47 76° ESE 22:15:26 19° S
Cosmos 1943 3.2 22:07:20 13° S 22:12:17 61° ESE 22:17:53 10° NNE
CARTOSAT-1 4.3 22:14:29 29° ESE 22:15:56 38° ENE 22:19:58 10° N
Cosmos 1461 4.4 22:12:56 10° NW 22:16:35 28° WSW 22:18:39 18° SSW
SPOT 5 4.1 22:15:34 12° SSW 22:19:13 31° W 22:23:05 10° NW
Cosmos 1943 Rocket 3.3 22:15:53 10° N 22:20:47 31° NE 22:23:31 21° E
Landsat 7 3.8 22:23:17 35° SSE 22:25:14 69° ENE 22:29:59 10° N
Cosmos 1992 Rocket 4.1 22:20:24 10° NNW 22:25:37 72° WSW 22:28:12 30° S
SL-08 RB Rocket 3.7 22:27:19 33° S 22:29:20 79° WSW 22:33:54 10° NNW
Cosmos 1825 Rocket 3.7 22:26:46 23° SSW 22:29:29 72° W 22:33:56 10° N
H-2A R/B 2.1 22:28:49 35° SE 22:30:42 59° ENE 22:35:40 10° N
SAR-Lupe-2 3.7 22:30:47 52° ESE 22:31:16 59° ENE 22:34:49 10° N
Cosmos 1766 3.4 22:29:40 10° N 22:33:38 58° E 22:34:21 49° ESE
SPOT 1/Viking Rocket 4.4 22:36:22 21° SSW 22:39:27 44° W 22:44:23 10° NNW
Geosat 3.9 22:35:36 10° NNE 22:40:40 89° WNW 22:44:24 18° SSW
Terra 1.8 22:39:33 43° SE 22:41:02 69° ENE 22:45:46 10° N
Cosmos 1190 Rocket 4.1 22:40:31 20° SSW 22:44:17 80° WNW 22:49:39 10° NNE
Cosmos 1634 Rocket 4.5 22:43:56 10° NNW 22:49:56 55° W 22:53:37 24° SSW
SeaSat 1 4.4 22:47:09 13° SW 22:49:57 19° WSW 22:53:29 10° WNW
CZ-4C R/B 4.1 22:48:45 36° SSW 22:50:06 50° W 22:54:07 10° NNW
DMSP B5D2-2 4.0 22:46:26 10° NNE 22:51:43 71° ESE 22:53:28 42° S
ARGOS 4.1 22:52:04 24° SSW 22:54:57 42° W 23:00:05 10° NNW
Cosmos 2369 Rocket 2.5 22:50:40 10° NNW 22:56:14 58° WSW 22:58:17 37° SSW
Atlas Centaur 2 3.5 22:49:40 10° WSW 22:56:54 36° S 22:58:15 34° SSE
Cosmos 676 Rocket 3.9 22:58:33 38° SSW 23:00:41 86° ESE 23:06:03 10° NNE
Cosmos 1900 4.3 23:02:03 33° SSW 23:04:27 90° ESE 23:09:38 10° NNE
Cosmos 1805 3.4 23:04:17 10° N 23:08:04 59° ENE 23:08:04 59° ENE
Cosmos 1140 Rocket 3.7 23:09:16 49° ESE 23:09:43 51° ESE 23:14:47 10° NNE
Cosmos 1953 2.2 23:06:05 10° N 23:10:04 80° ENE 23:10:04 80° ENE
COSMOS 2455 4.4 23:07:11 10° WSW 23:12:37 35° NW 23:18:06 10° NNE
Cosmos 2279 Rocket 4.3 23:08:20 10° NNW 23:14:29 62° W 23:17:07 35° SSW
IGS 5A 4.0 23:20:24 44° WSW 23:20:47 46° W 23:24:49 10° NNW
COSMOS 2406 3.2 23:21:08 53° SE 23:21:52 58° ESE 23:27:29 10° NNE
Cosmos 1340 4.3 23:24:54 25° ENE 23:24:54 25° ENE 23:27:03 10° NNE
Cosmos 2084 3.7 23:21:28 10° NNW 23:25:34 59° NE 23:25:43 58° ENE
ATLAS 3B R/B 3.3 23:19:34 10° SW 23:27:12 64° NW 23:34:40 10° NNE
SL-27 R/B 3.5 23:29:06 42° N 23:29:06 42° N 23:31:30 10° NNE
Cosmos 1932 4.3 23:27:10 40° SSW 23:29:34 84° ESE 23:35:50 10° NE
H-2A R/B 4.3 23:28:01 10° NE 23:29:41 18° ENE 23:29:41 18° ENE
Cosmos 2221 3.9 23:28:04 10° NNE 23:31:38 27° ENE 23:31:38 27° ENE
USA 234 4.4 23:33:09 25° SW 23:34:26 27° SW 23:39:50 10° WNW
Cosmos-2242 3.7 23:30:38 10° NNW 23:34:50 44° W 23:35:14 42° WSW
Lacrosse 4 Rocket 3.0 23:35:28 19° WSW 23:37:37 31° NW 23:41:18 10° N
Okean 3 Rocket 4.1 23:40:01 49° ENE 23:40:01 49° ENE 23:43:48 10° NNE
Cosmos 1607 3.9 23:40:07 56° SSE 23:40:56 60° ESE 23:47:03 10° NE
Cosmos 614 Rocket 4.0 23:41:05 61° ESE 23:41:08 61° ESE 23:46:16 10° NNE
ISS -1.0 23:41:33 10° WNW 23:44:20 25° NNW 23:47:07 10° NE
Cosmos 1707 3.9 23:46:39 36° NE 23:46:39 36° NE 23:49:24 10° NNE
Cosmos 2208 Rocket 3.8 23:40:27 10° NNW 23:45:39 85° WSW 23:46:06 75° S
CZ-4B R/B 3.2 23:50:52 28° NE 23:50:52 28° NE 23:53:26 10° N
Cosmos 1544 3.9 23:49:05 10° NNW 23:52:01 51° NNW 23:52:01 51° NNW
